• In Uzbekistan
  • List of Countries
  • For 7 days
  • Water Temperature
  • Satellite Maps
  • Weather Map
  • Weather Widgets
  • user-avatar
    Login

    Hourly Weather Ozernyy

    Today, 22 June, Friday

    Time Temperature Precipitation Wind Pressure Humidity
    00:00 +17°C° 0 mm 3 mps 740 mmHg 69%
    01:00 +16°C° 0 mm 3 mps 740 mmHg 74%
    02:00 +16°C° 0 mm 3 mps 740 mmHg 76%
    03:00 +16°C° 0 mm 3 mps 741 mmHg 77%
    04:00 +16°C° 0 mm 3 mps 741 mmHg 78%
    05:00 +17°C° 0 mm 3 mps 742 mmHg 72%
    06:00 +18°C° 0 mm 3 mps 742 mmHg 67%
    07:00 +19°C° 0 mm 3 mps 742 mmHg 61%
    08:00 +20°C° 0 mm 3 mps 743 mmHg 56%
    09:00 +21°C° 0 mm 4 mps 743 mmHg 51%
    10:00 +22°C° 0 mm 4 mps 743 mmHg 46%
    11:00 +23°C° 0 mm 4 mps 743 mmHg 46%
    12:00 +23°C° 0 mm 4 mps 744 mmHg 46%
    13:00 +23°C° 0 mm 4 mps 744 mmHg 46%
    14:00 +23°C° 0 mm 4 mps 744 mmHg 46%
    15:00 +23°C° 0 mm 4 mps 744 mmHg 45%
    16:00 +23°C° 0 mm 4 mps 745 mmHg 45%
    17:00 +23°C° 0 mm 4 mps 745 mmHg 48%
    18:00 +22°C° 0 mm 4 mps 745 mmHg 50%
    19:00 +22°C° 0 mm 3 mps 746 mmHg 53%
    20:00 +21°C° 0 mm 3 mps 746 mmHg 57%
    21:00 +20°C° 0 mm 3 mps 746 mmHg 62%
    22:00 +18°C° 0 mm 3 mps 747 mmHg 66%
    23:00 +18°C° 0 mm 4 mps 747 mmHg 68%

    Tomorrow, 23 June, Saturday

    Time Temperature Precipitation Wind Pressure Humidity
    00:00 +17°C° 0 mm 4 mps 747 mmHg 70%
    01:00 +15°C° 0 mm 4 mps 748 mmHg 72%
    02:00 +14°C° 0 mm 3 mps 748 mmHg 73%
    03:00 +14°C° 0 mm 3 mps 748 mmHg 74%
    04:00 +13°C° 0 mm 3 mps 749 mmHg 75%
    05:00 +14°C° 0 mm 3 mps 749 mmHg 71%
    06:00 +16°C° 0 mm 3 mps 749 mmHg 66%
    07:00 +17°C° 0 mm 3 mps 749 mmHg 61%
    08:00 +19°C° 0 mm 3 mps 750 mmHg 57%
    09:00 +21°C° 0 mm 3 mps 750 mmHg 52%
    10:00 +22°C° 0 mm 3 mps 750 mmHg 47%
    11:00 +24°C° 0 mm 3 mps 750 mmHg 45%
    12:00 +25°C° 0 mm 3 mps 750 mmHg 43%
    13:00 +27°C° 0 mm 3 mps 751 mmHg 40%
    14:00 +27°C° 0 mm 3 mps 751 mmHg 40%
    15:00 +27°C° 0 mm 3 mps 751 mmHg 40%
    16:00 +27°C° 0 mm 3 mps 751 mmHg 40%
    17:00 +27°C° 0 mm 3 mps 751 mmHg 42%
    18:00 +26°C° 0 mm 2 mps 752 mmHg 43%
    19:00 +26°C° 0 mm 2 mps 752 mmHg 44%
    20:00 +24°C° 0 mm 2 mps 752 mmHg 51%
    21:00 +22°C° 0 mm 1 mps 752 mmHg 57%
    22:00 +21°C° 0 mm 1 mps 752 mmHg 64%
    23:00 +20°C° 0 mm 1 mps 753 mmHg 67%

    Day after tomorrow, 24 June, Sunday

    Time Temperature Precipitation Wind Pressure Humidity
    00:00 +19°C° 0 mm 1 mps 753 mmHg 69%
    01:00 +18°C° 0 mm 1 mps 753 mmHg 72%
    02:00 +18°C° 0 mm 1 mps 754 mmHg 72%
    03:00 +18°C° 0 mm 1 mps 754 mmHg 71%
    04:00 +19°C° 0 mm 1 mps 754 mmHg 71%
    05:00 +21°C° 0 mm 1 mps 754 mmHg 64%
    06:00 +21°C° 0 mm 0 mps 755 mmHg 57%
    07:00 +23°C° 0 mm 0 mps 755 mmHg 50%
    08:00 +26°C° 0 mm 1 mps 755 mmHg 45%
    09:00 +27°C° 0 mm 1 mps 755 mmHg 40%
    10:00 +29°C° 0 mm 1 mps 755 mmHg 35%
    11:00 +29°C° 0 mm 2 mps 755 mmHg 33%
    12:00 +30°C° 0 mm 2 mps 755 mmHg 31%
    13:00 +31°C° 0 mm 2 mps 754 mmHg 29%
    14:00 +31°C° 0 mm 2 mps 754 mmHg 28%
    15:00 +31°C° 0 mm 2 mps 754 mmHg 28%
    16:00 +31°C° 0 mm 2 mps 754 mmHg 27%
    17:00 +31°C° 0 mm 2 mps 754 mmHg 29%
    18:00 +30°C° 0 mm 2 mps 754 mmHg 32%
    19:00 +29°C° 0 mm 2 mps 754 mmHg 34%
    20:00 +27°C° 0 mm 2 mps 754 mmHg 40%
    21:00 +25°C° 0 mm 2 mps 755 mmHg 46%
    22:00 +23°C° 0 mm 2 mps 755 mmHg 52%
    23:00 +22°C° 0 mm 1 mps 755 mmHg 53%

    25 June, Monday

    Time Temperature Precipitation Wind Pressure Humidity
    00:00 +21°C° 0 mm 1 mps 755 mmHg 53%
    01:00 +19°C° 0 mm 1 mps 755 mmHg 54%
    02:00 +20°C° 0 mm 1 mps 756 mmHg 53%
    03:00 +20°C° 0 mm 1 mps 756 mmHg 52%
    04:00 +20°C° 0 mm 1 mps 756 mmHg 52%
    05:00 +22°C° 0 mm 1 mps 756 mmHg 47%
    06:00 +23°C° 0 mm 1 mps 756 mmHg 42%
    07:00 +25°C° 0 mm 1 mps 756 mmHg 37%
    08:00 +27°C° 0 mm 1 mps 756 mmHg 34%
    09:00 +29°C° 0 mm 1 mps 756 mmHg 30%
    10:00 +30°C° 0 mm 1 mps 756 mmHg 27%
    11:00 +32°C° 0 mm 1 mps 756 mmHg 26%
    12:00 +33°C° 0 mm 1 mps 756 mmHg 24%
    13:00 +34°C° 0 mm 1 mps 756 mmHg 23%
    14:00 +34°C° 0 mm 1 mps 756 mmHg 23%
    15:00 +34°C° 0 mm 1 mps 756 mmHg 23%
    16:00 +34°C° 0 mm 1 mps 756 mmHg 23%
    17:00 +33°C° 0 mm 1 mps 756 mmHg 25%
    18:00 +32°C° 0 mm 1 mps 756 mmHg 27%
    19:00 +31°C° 0 mm 2 mps 756 mmHg 29%
    20:00 +29°C° 0 mm 2 mps 756 mmHg 33%
    21:00 +27°C° 0 mm 2 mps 756 mmHg 37%
    22:00 +25°C° 0 mm 2 mps 756 mmHg 42%
    23:00 +24°C° 0 mm 2 mps 756 mmHg 44%

    26 June, Tuesday

    Time Temperature Precipitation Wind Pressure Humidity
    00:00 +23°C° 0 mm 2 mps 757 mmHg 46%
    01:00 +20°C° 0 mm 2 mps 757 mmHg 48%
    02:00 +20°C° 0 mm 2 mps 757 mmHg 50%
    03:00 +20°C° 0 mm 2 mps 757 mmHg 53%
    04:00 +20°C° 0 mm 2 mps 757 mmHg 55%
    05:00 +23°C° 0 mm 2 mps 757 mmHg 52%
    06:00 +24°C° 0 mm 2 mps 758 mmHg 49%
    07:00 +25°C° 0 mm 2 mps 758 mmHg 46%
    08:00 +28°C° 0 mm 2 mps 758 mmHg 42%
    09:00 +30°C° 0 mm 1 mps 758 mmHg 37%
    10:00 +32°C° 0 mm 1 mps 758 mmHg 33%
    11:00 +33°C° 0 mm 1 mps 758 mmHg 30%
    12:00 +33°C° 0 mm 0 mps 758 mmHg 28%
    13:00 +34°C° 0 mm 0 mps 758 mmHg 25%
    14:00 +35°C° 0 mm 1 mps 758 mmHg 25%
    15:00 +35°C° 0 mm 1 mps 758 mmHg 25%
    16:00 +35°C° 0 mm 2 mps 758 mmHg 25%
    17:00 +35°C° 0 mm 2 mps 758 mmHg 28%
    18:00 +34°C° 0 mm 2 mps 759 mmHg 31%
    19:00 +32°C° 0 mm 2 mps 759 mmHg 34%
    20:00 +29°C° 0 mm 2 mps 759 mmHg 39%
    21:00 +27°C° 0 mm 2 mps 759 mmHg 45%
    22:00 +25°C° 0 mm 2 mps 759 mmHg 50%
    23:00 +24°C° 0 mm 2 mps 760 mmHg 54%

    27 June, Wednesday

    Time Temperature Precipitation Wind Pressure Humidity
    00:00 +21°C° 0 mm 2 mps 760 mmHg 59%
    01:00 +20°C° 0 mm 2 mps 760 mmHg 63%
    02:00 +20°C° 0 mm 2 mps 760 mmHg 64%
    03:00 +21°C° 0 mm 1 mps 761 mmHg 65%
    04:00 +21°C° 0 mm 1 mps 761 mmHg 66%
    05:00 +23°C° 0 mm 1 mps 761 mmHg 60%
    06:00 +25°C° 0 mm 1 mps 761 mmHg 55%
    07:00 +26°C° 0 mm 1 mps 761 mmHg 49%
    08:00 +28°C° 0 mm 1 mps 761 mmHg 44%
    09:00 +30°C° 0 mm 1 mps 761 mmHg 39%
    10:00 +32°C° 0 mm 1 mps 761 mmHg 33%
    11:00 +33°C° 0 mm 1 mps 760 mmHg 31%
    12:00 +34°C° 0 mm 1 mps 760 mmHg 29%
    13:00 +35°C° 0 mm 1 mps 760 mmHg 26%
    14:00 +35°C° 0 mm 1 mps 760 mmHg 26%
    15:00 +35°C° 0 mm 1 mps 760 mmHg 26%
    16:00 +35°C° 0 mm 1 mps 759 mmHg 25%
    17:00 +33°C° 0 mm 1 mps 759 mmHg 29%
    18:00 +32°C° 0 mm 1 mps 759 mmHg 33%
    19:00 +30°C° 0 mm 1 mps 759 mmHg 37%
    20:00 +29°C° 0 mm 2 mps 759 mmHg 40%
    21:00 +28°C° 0 mm 2 mps 759 mmHg 43%
    22:00 +27°C° 0 mm 2 mps 759 mmHg 46%
    23:00 +26°C° 0 mm 2 mps 759 mmHg 49%
    Show more